Regional Weather Roundup
Issued by NWS Newport/Morehead, NC

Current Version | Previous Version | Graphics & Text | Print | Product List | Glossary Off
Versions: 1 2 3 4 5 6 7 8 9 10 11 12 13 14 15 16 17 18 19 20 21 22 23 24 25 26 27 28 29 30 31 32 33 34 35 36 37 38 39 40 41 42 43 44 45 46 47 48 49 50

000
ASUS42 KMHX 301625
RWRMHX
WEATHER ROUNDUP FOR EASTERN NORTH CAROLINA
NATIONAL WEATHER SERVICE NEWPORT/MOREHEAD CITY NC
1200 PM EDT FRI SEP 30 2016

NOTE: "FAIR" INDICATES FEW OR NO CLOUDS BELOW 12,000 FEET
WITH NO SIGNIFICANT WEATHER AND/OR OBSTRUCTIONS TO VISIBILITY

NCZ015>017-031-032-045>047-102-103-301700-
NORTH COAST

CITY           SKY/WX    TMP DP  RH WIND       PRES   REMARKS
EDENTON        PTSUNNY   81  78  90 E6        30.07R
ELIZABETH CITY MOSUNNY   80  72  76 E13       30.07S
KITTY HAWK     PTSUNNY   82  78  90 E9        30.07F
MANTEO         PTSUNNY   79  76  91 SE9       30.08F

$$

NCZ045>047-081-094-103-104-301700-
CENTRAL COAST

CITY           SKY/WX    TMP DP  RH WIND       PRES   REMARKS
FRISCO         MOSUNNY   83  74  74 E6        30.08F

$$

NCZ095-097-098-100-101-301700-
SOUTHERN COAST

CITY           SKY/WX    TMP DP  RH WIND       PRES   REMARKS
BEAUFORT       LGT RAIN  77  75  93 CALM      30.06S
CEDAR ISLAND   NOT AVBL
JACKSONVILLE   LGT RAIN  73  70  90 SE7       30.04R
PINEY ISLAND   CLOUDY   N/A N/A N/A SE8       30.05F
WILMINGTON     LGT RAIN  73  71  93 E6        30.03F


$$

NCZ011>013-027>030-043-044-078>080-089-090>093-098-301700-
COASTAL PLAIN

CITY           SKY/WX    TMP DP  RH WIND       PRES   REMARKS
AHOSKIE        CLOUDY    76  73  91 CALM      30.06S
CLINTON        LGT RAIN  74  73  94 S3        30.04R
ELIZABETHTOWN  LGT RAIN  73  73 100 E7        30.03F
GOLDSBORO      CLOUDY    77  77 100 E9        30.02S
GREENVILLE     HVY RAIN  79  77  94 E13       30.05F
HAVELOCK       MOSUNNY   84  74  71 S9        30.05S
KENANSVILLE    CLOUDY    73  72  94 S3        30.04R
KINSTON        CLOUDY    77  77 100 S7        30.05R
NEW BERN       MOSUNNY   86  74  67 SE12      30.05S
RICHLANDS      LGT RAIN  72  70  93 S5        30.05R
ROCKY MOUNT    CLOUDY    76  75  97 CALM      30.05S
WASHINGTON     MOSUNNY   82  73  72 SE7G18    30.05S
WHITEVILLE     NOT AVBL

$$

AMZ130-135-150-152-154-156-158-170-250-252-270-ANZ085-086-088-633-658-670-301700-
MARINE OBSERVATIONS

STATION/POSITION TIME  TEMP    WIND        PRES    WAVE   SWELL
                       AIR SEA DIR/SP/G            HT/PER HT/PER
                 (UTC) (F)     (DEG/KT/KT) (MB)    (FT/S) (FT/S)
CHESAPEAKE LIGHT NOT AVBL
64 E VA BEACH    1550   76 75  140/  2/  4 1018.8    8/10   7/10
DUCK             1600   77 76   90/  8/  9 1018.1
2 E DUCK         1541      76                N/A     5/11   2/11
OREGON INLET     1600   79 78  100/  5/ 11 1018.5
13E OREGON INLT  1600      76                N/A     6/11   5/11
HATTERAS CG      1600   80 79   60/  8/ 11 1018.3
DIAMOND BUOY     1550   81 78  160/  8/ 10 1018.6    5/10   5/10
CAPE LOOKOUT     1600   72     150/ 20/ 23 1017.7
BEAUFORT LAB     1600   75 77  120/  1/  6 1017.4
30 SE NEW RVR IN 1608   80 82  190/ 12/ 16 1016.9
30 SE NEW RVR IN 1555      82                N/A     4/10   2/11
27 SE WRIGHTSVLE 1608   82 81  170/ 10/ 12 1017.0
5 SE WRIGHTSVLE  1508   74 80  300/ 10/ 16 1018.0
225 S CAPE HAT   1550   82 83  180/ 16/ 19 1019.2    4/10   3/10
41 SE CHARLESTON 1550   82 82  220/  8/ 10 1016.0    3/ 5   3/ 5

$$




USA.gov is the U.S. government's official web portal to all federal, state and local government web resources and services.